Sigfox identifier Datetime Temperature Humidity SNR
003B7D3B 2018-10-09 08:29:04 20.6 38 16.7
003B7D3B 2018-10-09 07:22:51 20.6 38 16.7
003B7D3B 2018-10-09 06:16:39 20.6 38 17.1
003B7D3B 2018-10-09 05:10:25 20.6 38 17.1
003B7D3B 2018-10-09 00:45:31 20.6 37 17.2
003B7D3B 2018-10-08 23:39:16 20.6 37 17.4
003B7D3B 2018-10-08 22:32:59 20.6 37 17.4
003B7D3B 2018-10-08 21:26:46 20.7 37 17.4
003B7D3B 2018-10-08 20:20:27 20.8 37 17.9
003B7D3B 2018-10-08 19:14:12 20.8 37 18.3
003B7D3B 2018-10-08 18:07:59 20.8 37 18.6
003B7D3B 2018-10-08 17:01:44 20.6 37 18.6
003B7D3B 2018-10-08 15:55:31 20.6 37 18.6
003B7D3B 2018-10-08 13:42:59 20.4 37 18
003B7D3B 2018-10-08 12:36:47 20.4 37 18
003B7D3B 2018-10-08 11:30:37 20.2 36 18
003B7D3B 2018-10-08 10:24:23 20 36 17.8
003B7D3B 2018-10-08 08:11:57 20.1 37 18
003B7D3B 2018-10-08 07:05:44 20.2 37 18.6
003B7D3B 2018-10-08 05:59:32 20.2 37 18.6
003B7D3B 2018-10-08 04:53:16 20.2 37 18.4
003B7D3B 2018-10-08 03:47:03 20.2 38 18.4
003B7D3B 2018-10-08 02:40:49 20.2 38 18
003B7D3B 2018-10-08 01:34:34 20.2 38 18.1
003B7D3B 2018-10-08 00:28:20 20.3 38 18.1
003B7D3B 2018-10-07 23:22:07 20.3 38 18.2
003B7D3B 2018-10-07 22:15:50 20.4 39 18.4
003B7D3B 2018-10-07 21:09:34 20.4 39 18.2
003B7D3B 2018-10-07 20:03:18 20.4 39 18.4
003B7D3B 2018-10-07 18:57:01 20.4 39 18.4
003B7D3B 2018-10-07 17:50:47 20.4 39 18.5
003B7D3B 2018-10-07 16:44:35 20.4 39 18.5
003B7D3B 2018-10-07 15:38:19 20.4 39 18.5
003B7D3B 2018-10-07 14:32:04 20.4 39 18.1
003B7D3B 2018-10-07 13:25:50 20.4 39 17.6
003B7D3B 2018-10-07 12:19:37 20.4 39 17.8
003B7D3B 2018-10-07 11:13:21 20.4 39 17.9
003B7D3B 2018-10-07 10:07:08 20.4 39 18.1
003B7D3B 2018-10-07 09:00:58 20.4 39 18.2
003B7D3B 2018-10-07 07:54:46 20.4 40 18.1
003B7D3B 2018-10-07 06:48:37 20.5 40 18.2
003B7D3B 2018-10-07 05:42:26 20.6 40 18.2
003B7D3B 2018-10-07 04:36:11 20.6 40 17.8
003B7D3B 2018-10-07 03:30:00 20.6 40 17.3
003B7D3B 2018-10-07 02:23:50 20.6 40 17.1
003B7D3B 2018-10-07 01:17:39 20.6 40 17.3
003B7D3B 2018-10-07 00:11:29 20.6 40 17.3
003B7D3B 2018-10-06 23:05:17 20.6 40 17.6
003B7D3B 2018-10-06 20:52:52 20.6 40 17.6
003B7D3B 2018-10-06 19:46:38 20.6 40 17.9
003B7D3B 2018-10-06 18:40:25 20.6 40 17.5
003B7D3B 2018-10-06 17:34:13 20.6 40 17.4
003B7D3B 2018-10-06 16:27:59 20.6 40 17.5
003B7D3B 2018-10-06 15:21:46 20.6 40 17.3
003B7D3B 2018-10-06 14:15:33 20.6 40 17.3
003B7D3B 2018-10-06 13:09:21 20.6 40 16.8
003B7D3B 2018-10-06 12:03:06 20.7 40 17
003B7D3B 2018-10-06 10:56:51 20.8 40 17.2
003B7D3B 2018-10-06 09:50:37 20.8 40 17.5
003B7D3B 2018-10-06 08:44:22 20.8 40 17.9
003B7D3B 2018-10-06 07:38:10 20.8 40 17.7
003B7D3B 2018-10-06 06:31:58 20.8 41 18
003B7D3B 2018-10-06 05:25:46 20.8 41 17.9
003B7D3B 2018-10-06 04:19:34 20.8 41 18.5
003B7D3B 2018-10-06 03:13:23 21 41 18.8
003B7D3B 2018-10-06 02:07:07 21 41 18.8
003B7D3B 2018-10-06 01:00:52 21 41 18.9
003B7D3B 2018-10-05 23:54:37 21 41 19.2
003B7D3B 2018-10-05 22:48:22 21.2 41 19
003B7D3B 2018-10-05 21:42:02 21.2 41 19
003B7D3B 2018-10-05 20:35:44 21.2 41 19
003B7D3B 2018-10-05 19:29:29 21.3 41 19
003B7D3B 2018-10-05 18:23:10 21.3 41 19
003B7D3B 2018-10-05 17:16:53 21.3 40 19
003B7D3B 2018-10-05 16:10:35 21.3 40 19
003B7D3B 2018-10-05 15:04:19 21.3 39 19.1
003B7D3B 2018-10-05 13:58:02 21.2 38 19.2
003B7D3B 2018-10-05 12:51:41 21.2 37 19.2
003B7D3B 2018-10-05 11:45:24 21.1 36 19.3
003B7D3B 2018-10-05 10:39:09 20.8 35 19.5
003B7D3B 2018-10-05 09:32:56 20.7 34 19.8
003B7D3B 2018-10-05 08:26:42 20.6 33 19.9
003B7D3B 2018-10-05 07:20:23 20.6 33 19.9
003B7D3B 2018-10-05 06:14:06 20.6 32 19.9
003B7D3B 2018-10-05 05:07:50 20.6 33 19.7
003B7D3B 2018-10-05 04:01:35 20.6 33 19.5
003B7D3B 2018-10-05 02:55:20 20.6 33 19.1
003B7D3B 2018-10-05 01:49:03 20.6 33 19.2
003B7D3B 2018-10-05 00:42:46 20.8 33 18.1
003B7D3B 2018-10-04 23:36:32 20.9 33 17.2
003B7D3B 2018-10-04 22:30:19 20.9 33 17.7
003B7D3B 2018-10-04 21:24:02 20.9 33 17.5
003B7D3B 2018-10-04 20:17:43 21 33 15.8
003B7D3B 2018-10-04 19:11:26 21 33 16.7
003B7D3B 2018-10-04 18:05:11 21.1 32 18.2
003B7D3B 2018-10-04 16:58:55 21.4 33 9.2
003B7D3B 2018-10-04 14:46:20 20.6 43 0